006  
ASUS42 KCAE 250510  
RWRCAE  
REGIONAL WEATHER ROUNDUP  
NATIONAL WEATHER SERVICE COLUMBIA SC  
100 AM EDT MON MAY 25 2020  
 
NOTE: "FAIR" INDICATES FEW OR NO CLOUDS BELOW 12,000 FEET WITH NO  
SIGNIFICANT WEATHER AND/OR S TO VISIBILITY
.  
 
NOT ALL STATIONS ARE QUALITY CONTROLLED BY THE NATIONAL  
WEATHER SERVICE. USE DATA WITH CAUTION...ESPECIALLY  
DEWPOINT OBSERVATIONS.  
 
SCZ001>056-GAZ040-063>065-077-250600-   
..UPSTATE SOUTH CAROLINA
 
 
 
CITY SKY/WX TMP DP RH WIND PRES REMARKS
 
ANDERSON CLOUDY 71 65 81 NE3 30.10F  
LIBERTY FAIR 68 67 96 E3 30.12S  
SPARTANBURG FAIR 66 64 94 N5 30.12F  
CLEMSON MOCLDY 68 65 90 E5 30.13R  
GREENVILLE FAIR 69 66 90 NE9 30.13F  
GREENWOOD FAIR 67 67 100 CALM 30.11S  
GREER MOCLDY 66 64 93 N6 30.13F  
ROCK HILL MOCLDY 67 66 97 CALM 30.11F  
CHESTER FAIR 68 68 100 CALM 30.13R  
LAURENS FAIR 68 66 94 CALM 30.10F  
 
   
..CENTRAL SOUTH CAROLINA
 
 
 
CITY SKY/WX TMP DP RH WIND PRES REMARKS
 
COLUMBIA APT CLOUDY 71 68 90 NE5 30.06F  
COLUMBIA OWENS FAIR 71 70 96 CALM 30.08R  
MCENTIRE ANGB CLOUDY 70 70 100 NE3 30.07F  
ORANGEBURG FAIR 72 66 81 SE5 30.07F  
SUMTER SHAW MOCLDY 70 69 96 NE3 30.08S  
NEWBERRY FAIR 68 68 100 CALM 30.13S  
AIKEN LGT RAIN 70 69 95 S3 30.09F  
BARNWELL FAIR 72 68 88 E3 30.08S  
MANNING CLOUDY 70 68 94 CALM 30.08F  
CAMDEN FAIR 70 68 94 CALM 30.09F  
LANCASTER N/A 68 66 94 CALM 30.11S  
WINNSBORO FAIR 68 64 88 E7 30.08F  
 
   
..EASTERN AND COASTAL SOUTH CAROLINA
 
 
 
CITY SKY/WX TMP DP RH WIND PRES REMARKS
 
MYRTLE BEACH CLOUDY 75 72 90 E8 30.10R  
N MYRTLE BCH CLOUDY 75 71 87 E8 30.09S  
CONWAY CLOUDY 72 72 100 CALM 30.09S  
MARION CLOUDY 70 70 100 NE3 30.10F  
HARTSVILLE FAIR 70 68 94 CALM 30.10S  
FLORENCE CLOUDY 71 67 87 E5 30.09F  
DARLINGTON MOCLDY 70 69 97 E5 30.10S  
CHARLESTON APT FAIR 72 70 93 NE3 30.06F  
WALTERBORO FAIR 72 70 94 CALM 30.08S  
BEAUFORT FAIR 77 73 87 CALM 30.06S  
HILTON HEAD FAIR 75 73 94 MISG 30.07S  
 
   
..EASTERN GEORGIA
 
 
 
CITY SKY/WX TMP DP RH WIND PRES REMARKS
 
AUGUSTA BUSH F MOCLDY 74 69 85 CALM 30.07F  
AUGUSTA DANIEL LGT RAIN 75 68 78 SE3 30.09S  
THOMSON FAIR 70 N/A N/A CALM 30.09S HAZE  
WASHINGTON LGT RAIN 70 68 94 CALM 30.09S  
CLAXTON FAIR 71 69 95 CALM 30.06S  
SYLVANIA FAIR 73 70 90 CALM 30.08F  
STATESBORO FAIR 70 67 90 CALM 30.07R  
SAVANNAH FAIR 76 73 91 N6 30.06S  
 
   
..SOUTHERN NORTH CAROLINA
 
 
 
CITY SKY/WX TMP DP RH WIND PRES REMARKS
 
CHARLOTTE MOCLDY 68 64 87 N5 30.12F  
MONROE FAIR 66 66 100 CALM 30.11S  
WADESBORO FAIR 69 67 93 CALM 30.11S  
RUTHERFORDTON MOCLDY 64 64 100 CALM 30.16F  
ASHEVILLE MOCLDY 64 62 93 S7 30.19R  
 

 
 
 
CLICK HERE TO GO TO PREVIOUS BULLETINS.

The Nexlab SC Page
The Nexlab GA Page Main Text Page